Time,TemperatureF,DewpointF,PressureIn,WindDirection,WindDirectionDegrees,WindSpeedMPH,WindSpeedGustMPH,Humidity,HourlyPrecipIn,Conditions,Clouds,dailyrainin,SoftwareType,DateUTC
2013-09-26 00:14:00,50.0,48.0,29.87,WSW,250,0.0,-999.0,92,-99.99,,,-99.99,,2013-09-26 04:14:00,
2013-09-26 00:24:00,50.0,48.0,29.87,WSW,250,0.0,-999.0,92,-99.99,,,-99.99,,2013-09-26 04:24:00,
2013-09-26 00:54:00,50.0,48.0,29.88,WSW,250,0.0,-999.0,92,-99.99,,,-99.99,,2013-09-26 04:54:00,
2013-09-26 01:13:00,49.0,47.0,29.87,WSW,250,0.0,-999.0,92,-99.99,,,-99.99,,2013-09-26 05:13:00,
2013-09-26 01:23:00,49.0,47.0,29.87,WSW,250,0.0,-999.0,92,-99.99,,,-99.99,,2013-09-26 05:23:00,
2013-09-26 01:43:00,49.0,47.0,29.87,WSW,250,0.0,-999.0,92,-99.99,,,-99.99,,2013-09-26 05:43:00,
2013-09-26 01:52:00,48.0,46.0,29.86,East,89,0.0,-999.0,93,-99.99,,,-99.99,,2013-09-26 05:52:00,
2013-09-26 02:13:00,48.0,46.0,29.87,East,89,0.0,-999.0,93,-99.99,,,-99.99,,2013-09-26 06:13:00,
2013-09-26 03:22:00,46.0,-99.9,29.83,East,89,0.0,-999.0,-999,-99.99,,,-99.99,,2013-09-26 07:22:00,
2013-09-26 10:11:00,49.0,48.0,29.97,ENE,72,0.0,-999.0,95,-99.99,,,-99.99,,2013-09-26 14:11:00,
2013-09-26 10:22:00,52.0,51.0,29.97,ENE,72,0.0,-999.0,95,-99.99,,,-99.99,,2013-09-26 14:22:00,
2013-09-26 10:42:00,53.0,52.0,29.97,ENE,72,0.0,-999.0,95,-99.99,,,-99.99,,2013-09-26 14:42:00,
2013-09-26 10:52:00,55.0,53.0,29.97,East,88,0.0,-999.0,94,-99.99,,,-99.99,,2013-09-26 14:52:00,
2013-09-26 11:11:00,57.0,52.0,29.97,East,88,0.0,-999.0,83,-99.99,,,-99.99,,2013-09-26 15:11:00,
2013-09-26 11:22:00,59.0,48.0,29.96,East,88,0.0,-999.0,68,-99.99,,,-99.99,,2013-09-26 15:22:00,
2013-09-26 11:44:00,62.0,51.0,29.96,East,88,0.0,-999.0,67,-99.99,,,-99.99,,2013-09-26 15:44:00,
2013-09-26 11:53:00,63.0,51.0,29.96,East,88,0.0,-999.0,66,-99.99,,,-99.99,,2013-09-26 15:53:00,
2013-09-26 12:13:00,65.0,52.0,29.96,NNE,21,1.0,-999.0,63,-99.99,,,-99.99,,2013-09-26 16:13:00,
2013-09-26 12:24:00,67.0,49.0,29.96,NNW,344,1.0,-999.0,53,-99.99,,,-99.99,,2013-09-26 16:24:00,
2013-09-26 12:43:00,68.0,50.0,29.95,NNW,343,1.0,-999.0,53,-99.99,,,-99.99,,2013-09-26 16:43:00,
2013-09-26 12:53:00,68.0,48.0,29.95,NNW,346,0.0,-999.0,48,-99.99,,,-99.99,,2013-09-26 16:53:00,
2013-09-26 13:12:00,69.0,40.0,29.95,NNW,347,0.0,-999.0,35,-99.99,,,-99.99,,2013-09-26 17:12:00,
2013-09-26 13:23:00,69.0,40.0,29.95,North,352,1.0,-999.0,35,-99.99,,,-99.99,,2013-09-26 17:23:00,
2013-09-26 13:52:00,71.0,44.0,29.94,NW,312,0.0,-999.0,38,-99.99,,,-99.99,,2013-09-26 17:52:00,
2013-09-26 14:13:00,70.0,42.0,29.91,NNW,344,1.0,-999.0,36,-99.99,,,-99.99,,2013-09-26 18:13:00,
2013-09-26 14:22:00,71.0,43.0,29.91,SSE,160,0.0,-999.0,37,-99.99,,,-99.99,,2013-09-26 18:22:00,
2013-09-26 14:42:00,72.0,41.0,29.90,ENE,59,0.0,-999.0,33,-99.99,,,-99.99,,2013-09-26 18:42:00,
2013-09-26 14:52:00,72.0,43.0,29.90,North,354,1.0,-999.0,35,-99.99,,,-99.99,,2013-09-26 18:52:00,
2013-09-26 15:12:00,72.0,46.0,29.90,NNW,339,0.0,-999.0,39,-99.99,,,-99.99,,2013-09-26 19:12:00,
2013-09-26 15:22:00,73.0,50.0,29.89,NW,322,1.0,-999.0,44,-99.99,,,-99.99,,2013-09-26 19:22:00,
2013-09-26 15:44:00,72.0,49.0,29.89,NNW,340,2.0,-999.0,44,-99.99,,,-99.99,,2013-09-26 19:44:00,
2013-09-26 15:52:00,72.0,50.0,29.89,NNW,330,3.0,-999.0,46,-99.99,,,-99.99,,2013-09-26 19:52:00,
2013-09-26 16:12:00,72.0,52.0,29.90,NNW,347,1.0,-999.0,49,-99.99,,,-99.99,,2013-09-26 20:12:00,
2013-09-26 16:23:00,72.0,51.0,29.90,North,349,1.0,-999.0,47,-99.99,,,-99.99,,2013-09-26 20:23:00,
2013-09-26 16:43:00,72.0,53.0,29.90,North,0,2.0,-999.0,52,-99.99,,,-99.99,,2013-09-26 20:43:00,
2013-09-26 16:52:00,72.0,53.0,29.90,North,353,2.0,-999.0,51,-99.99,,,-99.99,,2013-09-26 20:52:00,
2013-09-26 17:12:00,72.0,52.0,29.90,North,359,1.0,-999.0,50,-99.99,,,-99.99,,2013-09-26 21:12:00,
2013-09-26 17:23:00,71.0,53.0,29.90,NNW,344,2.0,-999.0,53,-99.99,,,-99.99,,2013-09-26 21:23:00,
2013-09-26 17:44:00,70.0,52.0,29.91,North,357,2.0,-999.0,53,-99.99,,,-99.99,,2013-09-26 21:44:00,
2013-09-26 17:54:00,70.0,53.0,29.91,NNW,339,0.0,-999.0,55,-99.99,,,-99.99,,2013-09-26 21:54:00,
2013-09-26 18:14:00,68.0,52.0,29.92,NNW,339,3.0,-999.0,56,-99.99,,,-99.99,,2013-09-26 22:14:00,
2013-09-26 18:24:00,66.0,52.0,29.93,NNW,342,1.0,-999.0,60,-99.99,,,-99.99,,2013-09-26 22:24:00,
2013-09-26 18:43:00,65.0,52.0,29.93,North,352,0.0,-999.0,63,-99.99,,,-99.99,,2013-09-26 22:43:00,
2013-09-26 18:54:00,64.0,52.0,29.94,WNW,295,0.0,-999.0,66,-99.99,,,-99.99,,2013-09-26 22:54:00,
2013-09-26 19:12:00,62.0,52.0,29.95,WNW,295,0.0,-999.0,71,-99.99,,,-99.99,,2013-09-26 23:12:00,
2013-09-26 19:23:00,61.0,53.0,29.96,WNW,295,0.0,-999.0,74,-99.99,,,-99.99,,2013-09-26 23:23:00,
2013-09-26 20:22:00,57.0,52.0,29.98,WNW,295,0.0,-999.0,82,-99.99,,,-99.99,,2013-09-27 00:22:00,
2013-09-26 20:43:00,56.0,51.0,29.99,WNW,295,0.0,-999.0,83,-99.99,,,-99.99,,2013-09-27 00:43:00,
2013-09-26 20:52:00,55.0,50.0,29.99,WNW,295,0.0,-999.0,84,-99.99,,,-99.99,,2013-09-27 00:52:00,
2013-09-26 21:12:00,55.0,51.0,30.00,WNW,295,0.0,-999.0,85,-99.99,,,-99.99,,2013-09-27 01:12:00,
2013-09-26 21:23:00,54.0,50.0,30.00,WNW,295,0.0,-999.0,86,-99.99,,,-99.99,,2013-09-27 01:23:00,
2013-09-26 21:42:00,54.0,50.0,30.00,WNW,295,0.0,-999.0,87,-99.99,,,-99.99,,2013-09-27 01:42:00,
2013-09-26 21:52:00,53.0,50.0,30.01,WNW,295,0.0,-999.0,88,-99.99,,,-99.99,,2013-09-27 01:52:00,
2013-09-26 22:12:00,53.0,50.0,30.01,WNW,295,0.0,-999.0,88,-99.99,,,-99.99,,2013-09-27 02:12:00,
2013-09-26 22:22:00,53.0,50.0,30.02,WNW,295,0.0,-999.0,89,-99.99,,,-99.99,,2013-09-27 02:22:00,
2013-09-26 22:43:00,52.0,49.0,30.02,WNW,295,0.0,-999.0,89,-99.99,,,-99.99,,2013-09-27 02:43:00,
2013-09-26 22:53:00,52.0,49.0,30.03,WNW,295,0.0,-999.0,89,-99.99,,,-99.99,,2013-09-27 02:53:00,
2013-09-26 23:12:00,52.0,49.0,30.02,WNW,295,0.0,-999.0,90,-99.99,,,-99.99,,2013-09-27 03:12:00,
2013-09-26 23:22:00,52.0,49.0,30.01,WNW,295,0.0,-999.0,90,-99.99,,,-99.99,,2013-09-27 03:22:00,
2013-09-26 23:44:00,52.0,49.0,30.02,WNW,295,0.0,-999.0,91,-99.99,,,-99.99,,2013-09-27 03:44:00,
2013-09-26 23:55:00,52.0,49.0,30.02,WNW,295,0.0,-999.0,91,-99.99,,,-99.99,,2013-09-27 03:55:00,